Weather History for KROC - August, 2012

Change the Weather History Date:

Thursday, August 9, 2012

  Actual Average Record
Temperature  
Mean Temperature 73 °F 70 °F  
Max Temperature 80 °F 80 °F 98 °F (1949)
Min Temperature 65 °F 60 °F 45 °F (1964)
Degree Days  
Heating Degree Days 0 0  
Month to date heating degree days 0 0  
Since 1 June heating degree days 46 80  
Since 1 July heating degree days 0 12  
Cooling Degree Days 8 6  
Month to date cooling degree days 87 54  
Year to date cooling degree days 633 383  
Since 1 June cooling degree days 545 353  
Growing Degree Days 23 (Base 50)    
Moisture  
Dew Point 65 °F    
Average Humidity 75    
Maximum Humidity 87    
Minimum Humidity 62    
Precipitation  
Precipitation T in 0.11 in 1.71 in (1953)
Month to date precipitation 1.70 1.07  
Year to date precipitation 19.46 20.20  
Snow  
Snow 0.00 in 0.00 in 0.00 in ()
Month to date snowfall 0.0 0.0  
Since 1 June snowfall 0.0 0.0  
Since 1 July snowfall 0.0 0.0  
Snow Depth 0.00 in    
Sea Level Pressure  
Sea Level Pressure 29.88 in    
Wind  
Wind Speed 5 mph (SSW)    
Max Wind Speed 16 mph    
Max Gust Speed 20 mph    
Visibility 10 miles    
Events Rain , Thunderstorm    
T = Trace of Precipitation, MM = Missing Value Source: NWS Daily Summary

Daily Weather History Graph

Daily Weather History Graph

Search for Another Location

Airport or City:

Trip Planner

Search our weather history database for the weather conditions in past years. The results will help you decide how hot, cold, wet, or windy it might be!

Date:

Astronomy

Aug. 09, 2012 Rise Set
Actual Time 6:10 AM EDT 8:21 PM EDT
Civil Twilight 5:38 AM EDT 8:52 PM EDT
Nautical Twilight 5:00 AM EDT 9:30 PM EDT
Astronomical Twilight 4:17 AM EDT 10:13 PM EDT
Moon 11:57 PM EDT (8/9) 2:04 PM EDT (8/9)
Length of Visible Light 15h 13m
Length of Day
14h 10m
Waning Gibbous, 51% of the Moon is Illuminated
Aug 9
Waning Gibbous
Aug 9
Last Quarter
Aug 17
New
Aug 24
First Quarter
Aug 31
Full

Hourly Weather History & Observations

Time (EDT) Temp. Heat Index Dew Point Humidity Pressure Visibility Wind Dir Wind Speed Gust Speed Precip Events Conditions
12:54 AM 69.1 °F - 64.0 °F 84% 29.91 in 10.0 mi SSW 6.9 mph - N/A   Scattered Clouds
1:54 AM 68.0 °F - 63.0 °F 84% 29.91 in 10.0 mi SW 5.8 mph - N/A   Mostly Cloudy
2:54 AM 66.9 °F - 63.0 °F 87% 29.90 in 10.0 mi SW 3.5 mph - N/A   Partly Cloudy
3:54 AM 66.0 °F - 63.0 °F 90% 29.89 in 10.0 mi SSW 5.8 mph - N/A   Scattered Clouds
4:54 AM 66.0 °F - 63.0 °F 90% 29.89 in 10.0 mi Calm Calm - N/A   Mostly Cloudy
5:54 AM 66.9 °F - 63.0 °F 87% 29.91 in 10.0 mi SW 5.8 mph - N/A   Mostly Cloudy
6:54 AM 66.9 °F - 63.0 °F 87% 29.91 in 10.0 mi SW 4.6 mph - N/A   Mostly Cloudy
7:54 AM 69.1 °F - 64.0 °F 84% 29.91 in 10.0 mi WSW 3.5 mph - N/A   Mostly Cloudy
8:54 AM 71.1 °F - 64.0 °F 78% 29.91 in 10.0 mi SSW 5.8 mph - N/A   Overcast
9:54 AM 73.9 °F - 66.0 °F 76% 29.91 in 10.0 mi SW 6.9 mph - N/A   Overcast
10:54 AM 75.9 °F - 66.9 °F 74% 29.90 in 10.0 mi SW 4.6 mph - N/A   Overcast
11:54 AM 79.0 °F - 66.9 °F 66% 29.90 in 10.0 mi Calm Calm - N/A   Overcast
12:54 PM 80.1 °F 82.3 °F 66.9 °F 64% 29.90 in 10.0 mi WNW 8.1 mph - N/A   Overcast
1:54 PM 78.1 °F - 66.9 °F 68% 29.90 in 10.0 mi West 6.9 mph - N/A   Mostly Cloudy
2:54 PM 79.0 °F - 66.0 °F 64% 29.87 in 10.0 mi NW 9.2 mph - N/A   Mostly Cloudy
3:54 PM 77.0 °F - 64.9 °F 66% 29.86 in 10.0 mi NW 6.9 mph - N/A   Overcast
4:54 PM 79.0 °F - 64.0 °F 60% 29.85 in 10.0 mi Calm Calm - N/A   Mostly Cloudy
5:54 PM 75.9 °F - 66.9 °F 74% 29.85 in 10.0 mi NNE 6.9 mph - N/A   Mostly Cloudy
6:54 PM 75.0 °F - 68.0 °F 79% 29.83 in 10.0 mi NE 10.4 mph - N/A   Mostly Cloudy
7:15 PM 73.4 °F - 68.0 °F 83% 29.83 in 10.0 mi ENE 11.5 mph - N/A   Mostly Cloudy
7:54 PM 73.0 °F - 66.9 °F 81% 29.85 in 10.0 mi NE 11.5 mph - N/A   Mostly Cloudy
8:54 PM 72.0 °F - 66.9 °F 84% 29.86 in 10.0 mi ENE 8.1 mph - N/A   Overcast
9:45 PM 71.6 °F - 66.2 °F 83% 29.88 in 10.0 mi East 3.5 mph - N/A Thunderstorm Thunderstorm
9:54 PM 72.0 °F - 66.9 °F 84% 29.86 in 10.0 mi East 5.8 mph - N/A Thunderstorm Thunderstorm
10:20 PM 71.6 °F - 66.2 °F 83% 29.86 in 10.0 mi SE 11.5 mph - 0.00 in Rain , Thunderstorm Light Thunderstorms and Rain
10:35 PM 71.6 °F - 66.2 °F 83% 29.84 in 10.0 mi SE 8.1 mph - 0.00 in   Overcast
10:54 PM 70.0 °F - 66.0 °F 87% 29.84 in 10.0 mi South 5.8 mph - 0.00 in   Overcast
11:54 PM 69.1 °F - 64.0 °F 84% 29.81 in 10.0 mi Calm Calm - N/A   Overcast